Weather History for CWJX - September, 2014

Change the Weather History Date:

Monday, September 1, 2014

  Actual Average Record
Temperature  
Mean Temperature 58 °F -  
Max Temperature 74 °F - - ()
Min Temperature 42 °F - - ()
Degree Days  
Heating Degree Days 7    
Growing Degree Days 8 (Base 50)    
Moisture  
Dew Point 38 °F    
Average Humidity 53    
Maximum Humidity 84    
Minimum Humidity 17    
Precipitation  
Precipitation 0.00 in - - ()
Sea Level Pressure  
Sea Level Pressure 29.81 in    
Wind  
Wind Speed 7 mph ()    
Max Wind Speed 14 mph    
Max Gust Speed 23 mph    
T = Trace of Precipitation, MM = Missing Value Source: Averaged Metar Reports

Daily Weather History Graph

Daily Weather History Graph

Search for Another Location

Airport or City:

Trip Planner

Search our weather history database for the weather conditions in past years. The results will help you decide how hot, cold, wet, or windy it might be!

Date:

Astronomy

Sep. 01, 2014 Rise Set
Actual Time 6:31 AM CST 8:03 PM CST
Civil Twilight 5:57 AM CST 8:37 PM CST
Nautical Twilight 5:15 AM CST 9:19 PM CST
Astronomical Twilight 4:28 AM CST 10:05 PM CST
Moon 2:05 PM CST (9/1) 11:21 PM CST (9/1)
Length of Visible Light 14h 40m
Length of Day
13h 31m
Waxing Crescent, 43% of the Moon is Illuminated
Sep 1
Waxing Crescent
Sep 2
First Quarter
Sep 8
Full
Sep 15
Last Quarter
Sep 24
New

Hourly Weather History & Observations

Time (CST) Temp. Windchill Dew Point Humidity Pressure Visibility Wind Dir Wind Speed Gust Speed Precip Events Conditions
12:00 AM 45 °F - 40 °F 77% 29.81 in - WSW 5.8 mph - -  
12:00 AM 45.3 °F 42.3 °F 38.3 °F 76% 29.81 in - WSW 5.8 mph - N/A   Unknown
1:00 AM 46.2 °F 41.7 °F 41.0 °F 82% 29.81 in - WSW 9.2 mph - N/A   Unknown
2:00 AM 46.8 °F - 42.1 °F 84% 29.82 in - NW 2.3 mph - N/A   Unknown
3:00 AM 47.5 °F - 41.2 °F 79% 29.83 in - West 8.1 mph - N/A   Unknown
4:00 AM 46.8 °F - 39.6 °F 76% 29.83 in - West 9.2 mph - N/A   Unknown
5:00 AM 44.2 °F 40.3 °F 38.7 °F 81% 29.85 in - West 6.9 mph - N/A   Unknown
6:00 AM 45 °F - 40 °F 75% 29.85 in - WNW 8.1 mph - -  
6:00 AM 44.6 °F 40.2 °F 39.7 °F 83% 29.85 in - WNW 8.1 mph - N/A   Unknown
7:00 AM 47.1 °F - 40.3 °F 77% 29.86 in - WNW 8.1 mph - N/A   Unknown
8:00 AM 51.3 °F - 41.7 °F 70% 29.86 in - West 3.5 mph - N/A   Unknown
9:00 AM 55.4 °F - 41.4 °F 59% 29.86 in - NW 3.5 mph - N/A   Unknown
10:00 AM 60.1 °F - 39.6 °F 47% 29.85 in - WNW 4.6 mph - N/A   Unknown
11:00 AM 65.5 °F - 35.8 °F 33% 29.84 in - WNW 5.8 mph - N/A   Unknown
12:00 PM 67 °F - 36 °F 21% 29.83 in - West 6.9 mph - -  
12:00 PM 66.9 °F - 36.3 °F 32% 29.83 in - West 6.9 mph - N/A   Unknown
1:00 PM 67.6 °F - 36.3 °F 32% 29.81 in - West 10.4 mph - N/A   Unknown
2:00 PM 68.9 °F - 36.7 °F 31% 29.79 in - WSW 11.5 mph - N/A   Unknown
3:00 PM 71.6 °F - 37.2 °F 29% 29.77 in - WSW 13.8 mph 23.0 mph N/A   Unknown
4:00 PM 70.3 °F - 37.0 °F 30% 29.76 in - West 12.7 mph - N/A   Unknown
6:00 PM 70 °F - 35 °F 17% 29.73 in - WSW 11.5 mph - -  
6:00 PM 70.0 °F - 35.2 °F 28% 29.73 in - WSW 11.5 mph 17.3 mph N/A   Unknown
7:00 PM 70.0 °F - 34.2 °F 27% 29.73 in - WNW 11.5 mph - N/A   Unknown
8:00 PM 61.0 °F - 34.7 °F 37% 29.73 in - West 5.8 mph - N/A   Unknown
9:00 PM 56.7 °F - 38.7 °F 51% 29.74 in - WNW 6.9 mph - N/A   Unknown